Flag for Germany Weather past 2 weeks in Osterholz-Scharmbeck, Lower Saxony, Germany

Now
67 °F

Passing clouds.


Feels Like: 67 °F
Forecast: 61 / 72 °F
Wind: 5 mph from East

Location: Bremen

Current Time: Jul 24, 2014 at 9:36:11 AM

Latest Report: Jul 24, 2014 at 9:00 AM


Visibility: 19 mi

Pressure: 30.06 "Hg

Humidity: 77%

Dew point: 60 °F

Location of Osterholz-ScharmbeckLocation

Historic Weather in Osterholz-Scharmbeck — Graph

°F

Osterholz-Scharmbeck temperature yesterday

Maximum temperature yesterday: 81 °F (at 4:00 PM)
Minimum temperature yesterday: 63 °F (at 6:00 AM)
Average temperature yesterday: 74 °F

Past Weeks' High & Low Weather Summary

 TemperatureHumidityPressure
High90 °F (Jul 19, 5:00 PM)98% (Jul 16, 7:00 AM)30.18 "Hg (Jul 16, 7:00 AM)
Low54 °F (Jul 17, 5:00 AM)27% (Jul 19, 5:00 PM)29.59 "Hg (Jul 9, 4:00 PM)
Average70 °F69%29.94 "Hg
* Reported Jul 9 3:00 PM — Jul 24 8:00 AM, Osterholz-Scharmbeck, Weather by CustomWeather, © 2014

Note: Actual official high and low records may vary slightly from our data, if they occured in-between our weather recording intervals... More about our weather records

Advertising

Osterholz-Scharmbeck weather history for previous 24 hours

 ConditionsComfort  
Time TempWeatherWind HumidityBarometerVisibility
8:00 AM
Jul 24
64 °FPassing clouds.6 mph82%30.06 "Hg19 mi
7:00 AM63 °FPassing clouds.6 mph85%30.05 "Hg19 mi
6:00 AM61 °FScattered clouds.5 mph89%30.05 "Hg19 mi
5:00 AM61 °FPassing clouds.6 mph86%30.05 "Hg19 mi
4:00 AM62 °FPassing clouds.6 mph81%30.06 "Hg16 mi
3:00 AM63 °FPassing clouds.5 mph77%30.06 "Hg25 mi
2:00 AM64 °FPassing clouds.5 mph72%30.08 "Hg25 mi
1:00 AM66 °FPassing clouds.5 mph65%30.08 "Hg25 mi
12:00 AM68 °FPassing clouds.5 mph61%30.08 "Hg25 mi
11:00 PM
Jul 23
70 °FPassing clouds.5 mph57%30.08 "Hg25 mi
10:00 PM73 °FPassing clouds.6 mph52%30.07 "Hg25 mi
9:00 PM76 °FPassing clouds.7 mph47%30.06 "Hg25 mi
8:00 PM78 °FPassing clouds.9 mph46%30.06 "Hg22 mi
7:00 PM80 °FPassing clouds.9 mph42%30.06 "Hg25 mi
6:00 PM81 °FPassing clouds.8 mph40%30.06 "Hg25 mi
5:00 PM81 °FPassing clouds.8 mph38%30.07 "Hg25 mi
4:00 PM81 °FPassing clouds.8 mph37%30.09 "Hg25 mi
3:00 PM80 °FPassing clouds.8 mph39%30.11 "Hg25 mi
Weather by CustomWeather, © 2014

See weather overviewHow to use our weather pages